TimeCST,TemperatureF,Dew PointF,Humidity,Sea Level PressureIn,VisibilityMPH,Wind Direction,Wind SpeedMPH,Gust SpeedMPH,PrecipitationIn,Events,Conditions,WindDirDegrees,DateUTC
12:15 AM,26.6,21.2,80,30.16,10.0,Calm,Calm,-,N/A,,Clear,0,2012-12-09 06:15:00
12:35 AM,28.4,21.2,74,30.16,10.0,ENE,4.6,-,N/A,,Clear,70,2012-12-09 06:35:00
12:55 AM,28.4,21.2,74,30.14,10.0,East,4.6,-,N/A,,Clear,80,2012-12-09 06:55:00
1:15 AM,28.4,21.2,74,30.14,10.0,ENE,6.9,-,N/A,,Clear,70,2012-12-09 07:15:00
1:35 AM,28.4,23.0,80,30.14,10.0,ENE,6.9,-,N/A,,Clear,70,2012-12-09 07:35:00
1:55 AM,28.4,23.0,80,30.15,10.0,ENE,4.6,-,N/A,,Clear,70,2012-12-09 07:55:00
2:15 AM,30.2,23.0,75,30.16,10.0,NE,5.8,-,N/A,,Clear,50,2012-12-09 08:15:00
2:55 AM,28.4,23.0,80,30.16,10.0,NNE,6.9,-,N/A,,Overcast,20,2012-12-09 08:55:00
3:15 AM,28.4,23.0,80,30.15,10.0,NNE,9.2,-,N/A,,Scattered Clouds,30,2012-12-09 09:15:00
3:35 AM,28.4,23.0,80,30.14,10.0,NE,4.6,-,N/A,,Scattered Clouds,40,2012-12-09 09:35:00
3:55 AM,28.4,23.0,80,30.13,10.0,ENE,8.1,-,N/A,,Mostly Cloudy,70,2012-12-09 09:55:00
4:15 AM,30.2,23.0,75,30.11,10.0,ENE,9.2,-,N/A,,Overcast,70,2012-12-09 10:15:00
4:35 AM,30.2,24.8,80,30.10,10.0,ENE,6.9,-,N/A,,Overcast,70,2012-12-09 10:35:00
4:55 AM,32.0,24.8,75,30.11,10.0,East,9.2,-,N/A,,Overcast,80,2012-12-09 10:55:00
5:15 AM,32.0,26.6,80,30.11,10.0,East,8.1,-,N/A,,Overcast,80,2012-12-09 11:15:00
5:35 AM,32.0,26.6,80,30.11,10.0,ENE,8.1,-,N/A,,Overcast,60,2012-12-09 11:35:00
5:55 AM,32.0,26.6,80,30.11,10.0,ENE,6.9,-,N/A,,Overcast,60,2012-12-09 11:55:00
6:15 AM,32.0,26.6,80,30.12,10.0,ENE,8.1,-,N/A,,Overcast,60,2012-12-09 12:15:00
6:35 AM,32.0,26.6,80,30.12,10.0,NNE,6.9,-,N/A,,Overcast,20,2012-12-09 12:35:00
6:55 AM,32.0,26.6,80,30.13,10.0,NNE,6.9,-,N/A,,Overcast,30,2012-12-09 12:55:00
7:15 AM,32.0,26.6,80,30.12,10.0,NE,4.6,-,N/A,,Overcast,50,2012-12-09 13:15:00
7:35 AM,32.0,26.6,80,30.10,10.0,NE,6.9,-,N/A,,Overcast,40,2012-12-09 13:35:00
7:55 AM,32.0,28.4,87,30.10,10.0,NE,8.1,-,N/A,,Overcast,50,2012-12-09 13:55:00
8:15 AM,32.0,28.4,87,30.10,10.0,ENE,8.1,-,N/A,,Overcast,60,2012-12-09 14:15:00
8:35 AM,32.0,26.6,80,30.09,10.0,ENE,6.9,-,N/A,,Overcast,60,2012-12-09 14:35:00
8:55 AM,32.0,26.6,80,30.08,10.0,ENE,10.4,-,N/A,,Overcast,70,2012-12-09 14:55:00
9:35 AM,32.0,28.4,87,30.07,10.0,ENE,8.1,-,N/A,,Overcast,70,2012-12-09 15:35:00
9:55 AM,32.0,26.6,80,30.07,10.0,ENE,8.1,-,N/A,,Overcast,60,2012-12-09 15:55:00
10:15 AM,32.0,28.4,87,30.06,10.0,ENE,8.1,-,N/A,,Overcast,70,2012-12-09 16:15:00
10:35 AM,33.8,28.4,81,30.05,7.0,East,10.4,-,N/A,Snow,Light Snow,80,2012-12-09 16:35:00
10:55 AM,32.0,28.4,87,30.04,1.5,East,11.5,-,N/A,Snow,Light Snow,80,2012-12-09 16:55:00
11:15 AM,32.0,30.2,93,30.03,1.8,ENE,11.5,-,N/A,Snow,Light Snow,60,2012-12-09 17:15:00
11:35 AM,32.0,30.2,93,30.01,3.0,NE,9.2,-,N/A,Snow,Light Snow,50,2012-12-09 17:35:00
12:15 PM,32.0,32.0,100,29.98,3.0,NE,10.4,-,N/A,Snow,Light Snow,50,2012-12-09 18:15:00
12:35 PM,32.0,30.2,93,29.96,2.0,NE,9.2,-,N/A,Snow,Light Snow,50,2012-12-09 18:35:00
12:55 PM,32.0,30.2,93,29.95,1.5,NE,6.9,-,N/A,Snow,Light Snow,40,2012-12-09 18:55:00
1:15 PM,32.0,30.2,93,29.94,2.0,NE,8.1,-,N/A,Snow,Light Snow,50,2012-12-09 19:15:00
1:35 PM,32.0,32.0,100,29.92,2.0,NE,8.1,-,N/A,Snow,Light Snow,50,2012-12-09 19:35:00
1:55 PM,32.0,32.0,100,29.90,1.5,ENE,11.5,16.1,N/A,Snow,Light Snow,60,2012-12-09 19:55:00
2:15 PM,32.0,32.0,100,29.90,1.2,ENE,9.2,-,N/A,Snow,Light Snow,60,2012-12-09 20:15:00
2:35 PM,32.0,32.0,100,29.89,1.5,ENE,8.1,-,N/A,Snow,Light Snow,60,2012-12-09 20:35:00
2:55 PM,32.0,32.0,100,29.88,2.0,NE,8.1,-,N/A,Snow,Light Snow,50,2012-12-09 20:55:00
3:15 PM,32.0,32.0,100,29.87,1.5,NE,8.1,-,N/A,Snow,Light Snow,50,2012-12-09 21:15:00
3:35 PM,33.8,32.0,93,29.86,1.2,ENE,9.2,-,N/A,Snow,Light Snow,70,2012-12-09 21:35:00
3:55 PM,33.8,32.0,93,29.86,1.8,East,10.4,-,N/A,Snow,Light Snow,80,2012-12-09 21:55:00
4:15 PM,33.8,32.0,93,29.86,1.5,East,10.4,-,N/A,Snow,Light Snow,80,2012-12-09 22:15:00
4:35 PM,33.8,32.0,93,29.84,1.5,East,11.5,-,N/A,Snow,Light Snow,80,2012-12-09 22:35:00
4:55 PM,33.8,32.0,93,29.84,1.5,East,10.4,-,N/A,Snow,Light Snow,80,2012-12-09 22:55:00
5:15 PM,33.8,32.0,93,29.82,3.0,East,11.5,-,N/A,Snow,Light Snow,90,2012-12-09 23:15:00
5:35 PM,33.8,32.0,93,29.84,2.5,ENE,8.1,-,N/A,Snow,Light Snow,70,2012-12-09 23:35:00
5:55 PM,33.8,32.0,93,29.82,1.5,ENE,9.2,-,N/A,Snow,Light Snow,60,2012-12-09 23:55:00
6:15 PM,32.0,32.0,100,29.82,1.5,ENE,8.1,-,N/A,Snow,Light Snow,70,2012-12-10 00:15:00
6:35 PM,33.8,32.0,93,29.84,2.0,ENE,8.1,-,N/A,Snow,Light Snow,70,2012-12-10 00:35:00
6:55 PM,32.0,32.0,100,29.82,1.8,ENE,9.2,-,N/A,Snow,Light Snow,60,2012-12-10 00:55:00
7:15 PM,32.0,32.0,100,29.83,1.8,NE,4.6,-,N/A,Snow,Light Snow,40,2012-12-10 01:15:00
7:35 PM,32.0,32.0,100,29.82,1.8,North,10.4,-,N/A,Snow,Light Snow,10,2012-12-10 01:35:00
7:55 PM,32.0,30.2,93,29.81,1.2,NNE,10.4,-,N/A,Snow,Light Snow,30,2012-12-10 01:55:00
8:15 PM,32.0,30.2,93,29.80,1.8,NNE,10.4,-,N/A,Snow,Light Snow,20,2012-12-10 02:15:00
8:35 PM,32.0,30.2,93,29.78,2.0,NNE,10.4,-,N/A,Snow,Light Snow,30,2012-12-10 02:35:00
8:55 PM,32.0,30.2,93,29.78,4.0,NNE,11.5,-,N/A,Snow,Light Snow,30,2012-12-10 02:55:00
9:15 PM,32.0,30.2,93,29.76,4.0,NNE,10.4,-,N/A,Snow,Light Snow,30,2012-12-10 03:15:00
9:35 PM,32.0,30.2,93,29.76,5.0,NNE,10.4,-,N/A,Snow,Light Snow,30,2012-12-10 03:35:00
9:55 PM,32.0,30.2,93,29.75,10.0,NNE,11.5,-,N/A,Snow,Light Snow,30,2012-12-10 03:55:00
10:35 PM,32.0,30.2,93,29.75,4.0,NNE,10.4,-,N/A,Snow,Light Snow,30,2012-12-10 04:35:00
10:55 PM,32.0,28.4,87,29.75,2.5,NNE,10.4,-,N/A,Snow,Light Snow,30,2012-12-10 04:55:00
11:15 PM,30.2,28.4,93,29.75,3.0,NNE,10.4,-,N/A,Snow,Light Snow,30,2012-12-10 05:15:00
11:35 PM,30.2,28.4,93,29.75,3.0,NNE,11.5,-,N/A,Snow,Light Snow,30,2012-12-10 05:35:00
11:55 PM,30.2,28.4,93,29.74,3.0,NNE,11.5,-,N/A,Snow,Light Snow,30,2012-12-10 05:55:00